Location: Chob?dza
(50.3400°N, 19.8962°E)
Time: 08:00:49
(UTC+00:00)

Daily predictions for brighter satellites

Satellite Brightness Start Highest point End
(mag) Time Altitude Azimuth Time Altitude Azimuth Time Altitude Azimuth
NOSS 0 Rocket 4.1 17:26:59 10° NNW 17:33:13 87° WSW 17:39:23 10° SSE
Okean 3 4.3 17:30:34 10° NNW 17:34:43 58° W 17:38:54 10° S
Cosmos 2061 Rocket 4.2 17:32:07 10° N 17:38:32 61° ENE 17:44:52 10° SSE
Cosmos 2237 Rocket 2.2 17:34:10 10° NNW 17:39:49 70° ENE 17:45:26 10° SE
Cosmos 1725 Rocket 4.0 17:34:19 10° N 17:40:31 71° ENE 17:46:42 10° SSE
SL-4 R/B 3.6 17:38:30 10° S 17:42:06 22° SE 17:45:40 10° E
Cosmos 192 4.3 17:37:26 10° SSW 17:42:20 68° ESE 17:47:16 10° NNE
Cosmos 1733 Rocket 4.1 17:40:10 10° SE 17:43:35 24° E 17:47:03 10° NE
Cosmos 1707 4.4 17:40:08 10° NNW 17:43:40 37° W 17:47:10 10° SSW
USA 281 3.2 17:38:30 10° NNE 17:45:07 77° ESE 17:51:41 10° SSW
Cosmos 1331 Rocket 4.3 17:40:36 10° S 17:45:25 41° ESE 17:50:16 10° NE
Resurs 01 Rocket 2.9 17:42:54 10° ESE 17:46:22 23° ENE 17:49:51 10° N
Cosmos 1766 4.3 17:44:24 10° SE 17:47:26 23° E 17:50:31 10° NE
DMSP B5D1-3 4.5 17:42:20 10° NNE 17:47:32 77° ESE 17:52:39 10° S
Feng Yun 1-1 Rocket 4.3 17:45:01 10° SSE 17:50:36 80° ENE 17:56:23 10° NNW
Resurs 1-3 3.9 17:47:40 10° SE 17:51:52 48° ENE 17:56:05 10° N
Cosmos 1452 Rocket 3.5 17:47:02 10° S 17:52:15 67° ESE 17:57:31 10° NNE
CZ-4 R/B 1.5 17:49:04 10° S 17:52:55 75° WSW 17:56:52 10° NNW
Cosmos 968 Rocket 3.8 17:47:55 10° NNW 17:52:58 50° ENE 17:57:55 10° SE
SPOT 1/Viking Rocket 4.2 17:50:28 10° SE 17:55:10 36° ENE 17:59:53 10° N
NOSS 3-4 (A) 4.1 17:50:34 10° S 17:55:12 27° ESE 18:00:08 10° ENE
NOSS 3-4 (C) 4.1 17:50:45 10° S 17:55:20 26° ESE 18:00:13 10° ENE
Cosmos 2219 Rocket 4.5 17:51:08 10° NW 17:55:45 26° WSW 18:00:20 10° SSW
Cosmos 1805 3.1 17:53:58 10° S 17:57:44 68° E 18:01:34 10° NNE
YAOGAN 1 4.0 17:54:59 10° S 17:59:04 41° W 18:03:11 10° NNW
CZ-4B R/B 3.8 17:54:02 10° S 17:59:38 64° WSW 18:05:14 10° NNW
USA 267 3.8 17:53:19 10° SE 17:59:45 57° SW 18:06:14 10° WNW
BREEZE-M DEB (TANK) 4.5 17:58:41 10° W 18:01:01 14° SW 18:02:39 10° SSW
Cosmos 1980 3.8 17:56:21 10° NNW 18:02:04 81° WSW 18:07:45 10° SSE
CSL-04 Debris 4.2 17:58:15 10° SSE 18:03:38 71° ENE 18:09:05 10° NNW
ATLAS 3B R/B 4.2 18:00:09 10° NW 18:06:28 30° N 18:13:02 10° ENE
Cosmos 2016 Rocket 4.2 18:01:17 10° NNW 18:07:24 74° W 18:13:30 10° S
Cosmos 1741 Rocket 4.5 18:02:44 10° NNW 18:07:54 63° WSW 18:13:02 10° S
Cosmos 1733 3.4 18:05:14 10° SSW 18:08:59 71° W 18:12:45 10° N
CZ-4C R/B 3.3 18:02:41 10° NW 18:09:08 48° NE 18:15:45 15° ESE
Meteor 2-10 3.9 18:04:33 10° S 18:09:35 89° ESE 18:14:46 10° NNE
CENTAUR R/B 4.3 18:02:52 10° NW 18:10:36 45° WSW 18:19:00 10° S
IGS 5A 4.0 18:07:20 10° S 18:11:24 60° W 18:15:31 10° NNW
Okean-O 2.7 18:09:23 10° SSE 18:13:42 57° ENE 18:18:04 10° N
SJ 16-02 2.9 18:10:55 10° N 18:14:16 21° NE 18:16:16 16° E
Okean O Rocket 2.3 18:10:41 10° S 18:15:00 56° WSW 18:19:21 10° NNW
Cosmos 2221 Rocket 3.8 18:11:09 10° N 18:15:27 48° ENE 18:19:26 12° SSE
Cosmos 2123 Rocket 4.2 18:09:42 10° SSW 18:16:01 78° W 18:22:23 10° N
Okean 2 4.1 18:13:44 10° NNW 18:17:44 56° W 18:21:43 10° S
Lacrosse 5 rocket 1.3 18:14:05 10° SW 18:18:22 74° SE 18:22:27 10° ENE
Cosmos 2297 Rocket 2.1 18:15:40 10° SSW 18:21:16 71° ESE 18:26:56 10° NNE
Ariane Rocket 4.2 18:19:04 17° E 18:21:32 24° ENE 18:25:33 10° N
Cosmos 2098 Rocket 4.5 18:16:04 10° SSW 18:21:53 66° WNW 18:28:42 10° N
Meteor 1-24 Rocket 4.4 18:19:03 10° N 18:24:39 40° ENE 18:28:43 18° SE
Iridium 4 Rocket 3.6 18:22:22 10° N 18:26:28 58° W 18:30:36 10° SSW
Cosmos 1447 Rocket 4.5 18:20:57 10° S 18:27:01 62° E 18:33:07 10° NNE
SJ-6B 3.5 18:24:38 10° S 18:28:26 53° W 18:32:10 10° NNW
SWARM A 4.4 18:25:20 10° SSE 18:28:44 54° E 18:32:08 10° N
Cosmos 1271 Rocket 2.7 18:25:55 10° S 18:29:32 50° E 18:33:09 10° NNE
GEOS 3 Rocket 3.6 18:24:49 10° NE 18:30:15 79° SE 18:35:39 10° SW
Cosmos 1302 Rocket 4.1 18:27:57 10° S 18:33:03 52° ESE 18:38:11 10° NNE
Cosmos 2219 3.4 18:30:44 10° S 18:36:01 44° ESE 18:41:20 10° NE
ISS -3.8 18:32:55 10° WNW 18:36:16 80° SSW 18:37:31 36° ESE
Cosmos 1726 3.4 18:33:14 10° SSW 18:36:34 41° WNW 18:39:57 10° N
Cosmos 2227 Rocket 2.2 18:32:12 10° SSW 18:37:45 60° ESE 18:43:20 10° NE
USA 238 DEB 4.4 18:32:42 10° NW 18:39:51 59° SW 18:47:21 10° SSE
USA 238 4.4 18:32:48 10° NW 18:39:57 59° SW 18:47:25 10° SSE
MetOp-A 4.4 18:38:18 23° SE 18:41:13 46° ENE 18:46:03 10° N
Cosmos 1470 3.0 18:42:56 27° SSE 18:44:36 43° E 18:48:19 10° NNE
ADEOS Rocket 4.2 18:42:39 21° E 18:45:51 31° NE 18:52:00 10° N
USA 186 3.5 18:43:08 10° SSW 18:45:57 31° W 18:48:49 10° NNW
IRS-1C Rocket 4.1 18:46:25 12° SSE 18:51:25 82° WSW 18:56:45 10° NNW
Geosat 3.9 18:49:20 25° SE 18:52:17 82° ENE 18:57:21 10° NNW
SL-16 R/B 2.1 18:46:33 10° NNW 18:52:18 82° ENE 18:55:39 26° SSE
Cosmos 1513 Rocket 4.4 18:49:02 10° N 18:55:08 72° E 18:59:35 20° SSE
Meteor 1-12 Rocket 4.2 18:50:42 10° S 18:56:25 67° E 19:02:05 10° NNE
BlueWalker 3 3.0 18:53:11 10° SSW 18:55:50 29° S 18:55:50 29° S
BREEZE M DEB (TANK) 1.8 18:54:36 10° W 18:56:43 71° SW 18:56:43 71° SW
BREEZE-M DEB (TANK) 2.6 18:53:05 10° W 18:58:06 57° SSW 18:58:35 49° SSE
USA 215 3.7 18:59:34 10° ENE 19:06:01 60° NNW 19:12:24 10° W
MetOp-B 4.1 19:05:29 34° SE 19:07:47 64° ENE 19:13:06 10° N
Meteor 2-5 Rocket 3.7 19:02:30 10° NNW 19:08:23 85° ENE 19:12:02 25° SSE
H-2A R/B 2.9 19:08:17 44° E 19:09:01 49° ENE 19:13:19 10° N
SPOT 3 Rocket 4.1 19:07:53 36° E 19:09:08 42° ENE 19:14:03 10° N
Terra 2.8 19:09:42 29° ENE 19:10:02 29° ENE 19:14:05 10° N
Cosmos 1992 Rocket 4.1 19:07:58 21° S 19:11:14 51° ESE 19:16:18 10° NNE
Cosmos 1486 Rocket 4.0 19:09:18 10° NNW 19:14:38 74° ENE 19:16:23 43° SE
Cosmos 220 Rocket 3.8 19:11:08 10° NNW 19:15:19 68° ENE 19:15:51 60° ESE
Cosmos 1674 Rocket 4.3 19:14:48 10° NNW 19:18:59 49° W 19:21:46 19° SSW
Cosmos 2263 Rocket 2.8 19:21:15 35° E 19:21:15 35° E 19:25:19 10° NE
SL-4 R/B 2.2 19:16:19 10° WSW 19:20:57 67° SSE 19:21:28 61° ESE
Cosmos 1733 Rocket 4.4 19:17:05 10° SW 19:21:09 39° WNW 19:25:15 10° N
Resurs 01 Rocket 2.4 19:19:50 21° SSW 19:22:35 49° W 19:26:53 10° NNW
Cosmos 2034 Rocket 3.9 19:16:41 10° N 19:22:52 68° ENE 19:25:07 40° SSE
Cosmos 2237 Rocket 4.3 19:19:03 10° NW 19:23:21 23° WSW 19:27:37 10° SSW
IRS-1A Rocket 4.4 19:20:24 29° SSE 19:23:38 83° WSW 19:29:30 10° NNW
CARTOSAT-1 3.7 19:23:13 42° S 19:24:36 71° WSW 19:28:54 10° NNW
ATLAS 2AS CENTAUR R/B 4.4 19:31:27 17° ENE 19:31:27 17° ENE 19:33:25 10° ENE
Cosmos 1703 4.3 19:24:34 10° N 19:27:16 34° NE 19:27:16 34° NE
ATLAS CENTAUR R/B 4.2 19:14:04 10° WSW 19:28:54 72° NNW 19:35:34 10° ENE
Tsikada Rocket 4.2 19:33:50 46° ESE 19:34:24 47° E 19:40:15 10° NNE
Cosmos 1777 Rocket 4.3 19:33:17 10° NNW 19:38:22 49° ENE 19:38:41 48° ENE
Cosmos 1025 Rocket 3.0 19:34:49 10° N 19:38:54 73° NE 19:38:54 73° NE
H-2A R/B 4.5 19:36:52 10° NE 19:37:09 11° NE 19:37:09 11° NE
ERS-1 Rocket 2.9 19:42:33 63° E 19:42:49 65° ENE 19:47:48 10° N
Spot 2 4.2 19:44:32 74° ESE 19:44:53 80° ENE 19:49:41 10° NNW
NOSS 3-4 (A) 3.5 19:39:47 10° SW 19:45:28 71° NW 19:51:46 10° NE
NOSS 3-4 (C) 3.5 19:39:55 10° SW 19:45:34 71° NW 19:51:52 10° NE
FALCON 9 R/B 4.2 19:31:42 10° W 19:47:41 30° SSW 19:50:25 26° S
SJ 16-02 1.7 19:48:48 10° NNW 19:53:07 59° WSW 19:53:10 59° WSW
Cosmos 1908 Rocket 4.3 19:51:55 32° SW 19:53:39 52° WNW 19:58:02 10° N
Cosmos 1340 Rocket 3.4 19:49:58 10° NNW 19:53:10 54° NW 19:53:10 54° NW
SPOT 5 2.7 19:55:00 79° SW 19:55:11 81° WSW 20:00:10 10° NNW
Cosmos 1943 3.0 19:49:40 10° NNW 19:55:19 77° ENE 19:55:47 71° ESE
Cosmos 1603 3.7 19:50:29 10° NNW 19:56:12 64° ENE 19:56:35 62° E
Lacrosse 5 rocket 2.5 19:53:32 10° W 19:57:28 38° NNW 19:58:04 36° N
USA 245 4.1 19:58:52 50° NW 19:58:52 50° NW 20:02:16 10° NNW
CZ-4C R/B 3.1 19:51:04 10° NW 19:58:08 66° SW 20:00:55 43° S
ATLAS 3B R/B 3.4 19:51:39 10° NW 19:58:57 51° NE 20:01:27 38° E
Cosmos 1354 Rocket 3.9 19:54:28 10° NNW 19:59:47 85° ENE 19:59:53 84° E
Ariane Rocket 3.3 19:59:14 51° SW 20:00:08 60° WSW 20:05:10 10° NNW
Cosmos 2279 Rocket 4.3 19:57:47 10° N 20:03:46 48° ENE 20:03:46 48° ENE
Cosmos 2297 Rocket 4.2 20:01:04 10° W 20:05:52 28° NW 20:10:41 10° NNE
Spot 2 Rocket 3.5 20:10:39 78° WSW 20:10:39 78° WSW 20:15:47 10° NNW
Cosmos 1975 Rocket 3.6 20:06:55 10° NNW 20:10:48 56° WNW 20:10:48 56° WNW
ISS -0.7 20:10:02 10° W 20:10:27 12° W 20:10:27 12° W
Cosmos 2082 4.0 20:08:14 10° SW 20:13:48 65° WNW 20:19:25 10° NNE
Meteor 1-21 Rocket 4.2 20:09:36 10° N 20:15:30 75° ENE 20:15:30 75° ENE
Cosmos 2219 4.5 20:15:01 10° WSW 20:20:15 39° NW 20:25:32 10° NNE
ARIANE 5 R/B 4.0 20:23:23 31° NNE 20:23:23 31° NNE 20:25:59 10° N
Cosmos 2227 Rocket 3.9 20:17:10 10° WSW 20:22:11 31° NW 20:27:12 10° NNE
Cosmos 1809 Rocket 4.5 20:24:25 65° ENE 20:24:25 65° ENE 20:30:00 10° NNE
Cosmos 2344 4.1 20:17:19 10° NW 20:25:32 67° NE 20:28:56 45° ESE
ADEOS Rocket 3.3 20:29:34 58° SSW 20:30:45 69° WSW 20:37:58 10° NNW
SL-16 R/B 4.2 20:31:50 10° WNW 20:35:42 19° W 20:37:33 16° WSW
Cosmos 1634 Rocket 4.2 20:39:41 10° NNW 20:45:56 64° W 20:46:14 63° WSW
Terra 3.0 20:48:27 38° WNW 20:48:27 38° WNW 20:52:01 10° NNW
USA 215 3.9 20:45:41 31° ENE 20:48:32 51° N 20:54:48 10° WNW
NOSS 3-1 (C) 4.1 20:43:53 10° NW 20:50:50 63° NE 20:51:49 58° ENE
Cosmos 2263 Rocket 3.2 21:02:46 37° W 21:04:04 43° NW 21:09:23 10° NNE
H-2A R/B 4.2 21:12:16 10° N 21:14:08 23° N 21:14:08 23° N
ATLAS 2AS CENTAUR R/B 2.9 21:18:46 69° NE 21:18:46 69° NE 21:25:05 10° NE
Lacrosse 5 rocket 4.5 21:33:22 10° WNW 21:33:25 10° WNW 21:33:25 10° WNW
ATLAS CENTAUR R/B 3.8 21:34:59 10° WNW 21:44:30 48° N 21:45:00 47° NNE
ATLAS 3B R/B 3.3 21:42:33 10° NW 21:48:42 54° W 21:48:42 54° W
NOSS 3-1 (A) 4.1 21:50:18 10° NW 21:56:44 72° N 21:56:44 72° N
Cosmos 2082 Rocket 3.8 22:00:39 10° NNW 22:04:36 29° NNE 22:04:36 29° NNE
Cosmos 1833 Rocket 4.0 22:03:33 10° NNW 22:06:53 36° NNW 22:06:53 36° NNW
Cosmos 2278 Rocket 4.5 22:23:33 15° NE 22:23:33 15° NE 22:24:45 10° NE
USA 215 3.9 22:33:01 49° NW 22:33:01 49° NW 22:37:41 10° WNW
Cosmos 1844 Rocket 4.3 22:56:38 28° NNW 22:56:38 28° NNW 23:00:33 10° NNE
ATLAS 2AS CENTAUR R/B 4.0 23:06:05 25° WNW 23:09:32 38° NNW 23:16:10 10° NE
SL-16 R/B 3.7 23:34:14 34° ENE 23:34:58 35° ENE 23:40:33 10° N
ADEOS II 4.3 23:36:56 10° NE 23:39:34 18° ENE 23:39:34 18° ENE
Cosmos 2082 Rocket 4.1 23:44:32 10° NW 23:46:25 22° NW 23:46:25 22° NW
